Location: Usti nad Labem
(50.6670°N, 14.0330°E)
Time: 22:42:17
(UTC+01:00)

Envisat - Pass Details

Date: 08 December 2020
Orbit: 764 x 766 km, 98.1° (Epoch: 15 January)

Event Time Altitude Azimuth Distance (km) Brightness Sun altitude
Rises 16:36:04 0° 156° (SSE) 3,222 6.3 -5.7°
Reaches altitude 10° 16:38:22 10° 154° (SSE) 2,300 5.5 -6.1°
Maximum altitude 16:43:24 69° 72° (ENE) 822 3.0 -6.8°
Drops below altitude 10° 16:48:28 10° 350° (N) 2,316 5.3 -7.5°
Sets 16:50:47 0° 348° (NNW) 3,247 6.1 -7.8°
